Weather in Cherebayevo

Russia / Volgograd Oblast     50°43′12″N   45°55′00″E
temp.,
°C
wind,
m/s
gust,
m/s
humid.,
%
clouds,
%
prec.,
mm/h
press.,
hPa
HPBL,
m
6 august, fri
fri600:00+20nne3357100 0.0 101625
03:00+19nne22615 0.0 101618
06:00+19nne33605 0.0 101772
09:00+23ene23476 0.0 1017404
12:00+26n23405 0.0 1016786
15:00+27n33395 0.0 1015833
18:00+27ne44375 0.0 1014647
21:00+23ene454718 0.0 101446
7 august, sat
sat700:00+21ene3450100 0.0 101550
03:00+20ene3352100 0.0 101522
06:00+20ene2353100 0.0 101589
09:00+25e4538100 0.0 1015374
12:00+27e4533100 0.0 1014765
15:00+29e343270 0.0 1013887
18:00+29e453299 0.0 1013127
21:00+24ene4538100 0.0 101343
8 august, sun
sun800:00+23ene354442 0.0 101448
03:00+21ne234856 0.0 101521
06:00+21ne2448100 0.0 1016100
09:00+27se5735100 0.0 1016416
12:00+29ese6731100 0.0 1015915
15:00+29ese6830100 0.0 1015888
18:00+29ene5733100 0.0 1015212
21:00+25ene5641100 0.0 101654
9 august, mon
mon900:00+25ene4644100 0.0 101796
03:00+25e7114397 0.0 1016193
06:00+25ese5946100 0.0 1017220
09:00+27e683897 0.0 1018434
12:00+29ese6832100 0.0 1017710
15:00+29ese673098 0.0 1016703
18:00+29e6831100 0.0 1016208
21:00+27e5836100 0.0 1016131
10 august, tue
tue1000:00+26e4636100 0.0 1016118
03:00+25ene464090 0.0 1016114
06:00+24ene474418 0.0 1015151
09:00+28e793664 0.0 1015431
12:00+30e7831100 0.0 1013776
15:00+31e7829100 0.0 10111067
18:00+31se793099 0.0 1011422
21:00+27sse3538100 0.0 101193